Year,Month,Day,Hour,Minute,Value (Times are PST for temperature in C)
2021,12,06,00,00,1.70
2021,12,06,00,01,1.70
2021,12,06,00,02,1.70
2021,12,06,00,03,1.60
2021,12,06,00,04,1.60
2021,12,06,00,05,1.60
2021,12,06,00,06,1.60
2021,12,06,00,07,1.60
2021,12,06,00,08,1.60
2021,12,06,00,09,1.60
2021,12,06,00,10,1.60
2021,12,06,00,11,1.50
2021,12,06,00,12,1.50
2021,12,06,00,13,1.50
2021,12,06,00,14,1.50
2021,12,06,00,15,1.50
2021,12,06,00,16,1.40
2021,12,06,00,17,1.40
2021,12,06,00,18,1.40
2021,12,06,00,19,1.40
2021,12,06,00,20,1.40
2021,12,06,00,21,1.40
2021,12,06,00,22,1.40
2021,12,06,00,23,1.40
2021,12,06,00,24,1.40
2021,12,06,00,25,1.30
2021,12,06,00,26,1.30
2021,12,06,00,27,1.30
2021,12,06,00,28,1.30
2021,12,06,00,29,1.30
2021,12,06,00,30,1.30
2021,12,06,00,31,1.30
2021,12,06,00,32,1.30
2021,12,06,00,33,1.30
2021,12,06,00,34,1.30
2021,12,06,00,35,1.30
2021,12,06,00,36,1.30
2021,12,06,00,37,1.30
2021,12,06,00,38,1.30
2021,12,06,00,39,1.30
2021,12,06,00,40,1.30
2021,12,06,00,41,1.20
2021,12,06,00,42,1.20
2021,12,06,00,43,1.20
2021,12,06,00,44,1.20
2021,12,06,00,45,1.20
2021,12,06,00,46,1.20
2021,12,06,00,47,1.20
2021,12,06,00,48,1.20
2021,12,06,00,49,1.20
2021,12,06,00,50,1.20
2021,12,06,00,51,1.20
2021,12,06,00,52,1.20
2021,12,06,00,53,1.20
2021,12,06,00,54,1.20
2021,12,06,00,55,1.20
2021,12,06,00,56,1.20
2021,12,06,00,57,1.20
2021,12,06,00,58,1.20
2021,12,06,00,59,1.20
2021,12,06,01,00,1.20
2021,12,06,01,01,1.20
2021,12,06,01,02,1.10
2021,12,06,01,03,1.10
2021,12,06,01,04,1.10
2021,12,06,01,05,1.10
2021,12,06,01,06,1.10
2021,12,06,01,07,1.10
2021,12,06,01,08,1.10
2021,12,06,01,09,1.10
2021,12,06,01,10,1.10
2021,12,06,01,11,1.10
2021,12,06,01,12,1.10
2021,12,06,01,13,1.10
2021,12,06,01,14,1.10
2021,12,06,01,15,1.10
2021,12,06,01,16,1.10
2021,12,06,01,17,1.10
2021,12,06,01,18,1.10
2021,12,06,01,19,1.10
2021,12,06,01,20,1.00
2021,12,06,01,21,1.00
2021,12,06,01,22,1.00
2021,12,06,01,23,1.00
2021,12,06,01,24,1.00
2021,12,06,01,25,1.00
2021,12,06,01,26,1.00
2021,12,06,01,27,0.90
2021,12,06,01,28,0.90
2021,12,06,01,29,0.90
2021,12,06,01,30,0.90
2021,12,06,01,31,0.90
2021,12,06,01,32,0.80
2021,12,06,01,33,0.80
2021,12,06,01,34,0.80
2021,12,06,01,35,0.80
2021,12,06,01,36,0.80
2021,12,06,01,37,0.80
2021,12,06,01,38,0.80
2021,12,06,01,39,0.80
2021,12,06,01,40,0.80
2021,12,06,01,41,0.80
2021,12,06,01,42,0.80
2021,12,06,01,43,0.80
2021,12,06,01,44,0.70
2021,12,06,01,45,0.70
2021,12,06,01,46,0.70
2021,12,06,01,47,0.70
2021,12,06,01,48,0.70
2021,12,06,01,49,0.70
2021,12,06,01,50,0.70
2021,12,06,01,51,0.70
2021,12,06,01,52,0.70
2021,12,06,01,53,0.70
2021,12,06,01,54,0.70
2021,12,06,01,55,0.70
2021,12,06,01,56,0.70
2021,12,06,01,57,0.70
2021,12,06,01,58,0.80
2021,12,06,01,59,0.70
2021,12,06,02,00,0.70
2021,12,06,02,01,0.70
2021,12,06,02,02,0.80
2021,12,06,02,03,0.70
2021,12,06,02,04,0.70
2021,12,06,02,05,0.80
2021,12,06,02,06,0.80
2021,12,06,02,07,0.80
2021,12,06,02,08,0.80
2021,12,06,02,09,0.80
2021,12,06,02,10,0.80
2021,12,06,02,11,0.80
2021,12,06,02,12,0.80
2021,12,06,02,13,0.80
2021,12,06,02,14,0.80
2021,12,06,02,15,0.80
2021,12,06,02,16,0.80
2021,12,06,02,17,0.80
2021,12,06,02,18,0.80
2021,12,06,02,19,0.80
2021,12,06,02,20,0.80
2021,12,06,02,21,0.80
2021,12,06,02,22,0.80
2021,12,06,02,23,0.80
2021,12,06,02,24,0.80
2021,12,06,02,25,0.80
2021,12,06,02,26,0.80
2021,12,06,02,27,0.80
2021,12,06,02,28,0.80
2021,12,06,02,29,0.80
2021,12,06,02,30,0.80
2021,12,06,02,31,0.80
2021,12,06,02,32,0.80
2021,12,06,02,33,0.90
2021,12,06,02,34,0.90
2021,12,06,02,35,0.90
2021,12,06,02,36,0.90
2021,12,06,02,37,0.90
2021,12,06,02,38,0.90
2021,12,06,02,39,0.90
2021,12,06,02,40,0.90
2021,12,06,02,41,0.90
2021,12,06,02,42,0.90
2021,12,06,02,43,1.00
2021,12,06,02,44,1.00
2021,12,06,02,45,1.00
2021,12,06,02,46,1.00
2021,12,06,02,47,1.00
2021,12,06,02,48,1.00
2021,12,06,02,49,1.00
2021,12,06,02,50,1.10
2021,12,06,02,51,1.10
2021,12,06,02,52,1.10
2021,12,06,02,53,1.10
2021,12,06,02,54,1.10
2021,12,06,02,55,1.10
2021,12,06,02,56,1.10
2021,12,06,02,57,1.10
2021,12,06,02,58,1.10
2021,12,06,02,59,1.20
2021,12,06,03,00,1.20
2021,12,06,03,01,1.20
2021,12,06,03,02,1.20
2021,12,06,03,03,1.20
2021,12,06,03,04,1.20
2021,12,06,03,05,1.20
2021,12,06,03,06,1.20
2021,12,06,03,07,1.20
2021,12,06,03,08,1.20
2021,12,06,03,09,1.20
2021,12,06,03,10,1.20
2021,12,06,03,11,1.20
2021,12,06,03,12,1.20
2021,12,06,03,13,1.20
2021,12,06,03,14,1.20
2021,12,06,09,44,2.10
2021,12,06,09,45,2.00
2021,12,06,09,46,2.00
2021,12,06,09,47,2.00
2021,12,06,09,48,2.00
2021,12,06,09,49,2.00
2021,12,06,09,50,2.00
2021,12,06,09,51,2.10
2021,12,06,09,52,2.10
2021,12,06,09,53,2.10
2021,12,06,09,54,2.10
2021,12,06,09,55,2.10
2021,12,06,09,56,2.10
2021,12,06,09,57,2.10
2021,12,06,09,58,2.10
2021,12,06,09,59,2.10
2021,12,06,10,00,2.10
2021,12,06,10,01,2.10
2021,12,06,10,02,2.10
2021,12,06,10,03,2.10
2021,12,06,10,04,2.10
2021,12,06,10,05,2.10
2021,12,06,10,06,2.10
2021,12,06,10,07,2.10
2021,12,06,10,08,2.10
2021,12,06,10,09,2.10
2021,12,06,10,10,2.10
2021,12,06,10,11,2.10
2021,12,06,10,12,2.10
2021,12,06,10,13,2.10
2021,12,06,10,14,2.10
2021,12,06,10,15,2.10
2021,12,06,10,16,2.10
2021,12,06,10,17,2.10
2021,12,06,10,18,2.10
2021,12,06,10,19,2.10
2021,12,06,10,20,2.10
2021,12,06,10,21,2.10
2021,12,06,10,22,2.10
2021,12,06,10,23,2.10
2021,12,06,10,24,2.10
2021,12,06,10,25,2.20
2021,12,06,10,26,2.20
2021,12,06,10,27,2.20
2021,12,06,10,28,2.20
2021,12,06,10,29,2.20
2021,12,06,10,30,2.20
2021,12,06,10,31,2.20
2021,12,06,10,32,2.20
2021,12,06,10,33,2.20
2021,12,06,10,34,2.20
2021,12,06,10,35,2.20
2021,12,06,10,36,2.20
2021,12,06,10,37,2.20
2021,12,06,10,38,2.20
2021,12,06,10,39,2.20
2021,12,06,10,40,2.20
2021,12,06,10,41,2.20
2021,12,06,10,42,2.20
2021,12,06,10,43,2.20
2021,12,06,10,44,2.10
2021,12,06,10,45,2.10
2021,12,06,10,46,2.10
2021,12,06,10,47,2.10
2021,12,06,10,48,2.10
2021,12,06,10,49,2.10
2021,12,06,10,50,2.10
2021,12,06,10,51,2.20
2021,12,06,10,52,2.20
2021,12,06,10,53,2.20
2021,12,06,10,54,2.20
2021,12,06,10,55,2.20
2021,12,06,10,56,2.20
2021,12,06,10,57,2.20
2021,12,06,10,58,2.20
2021,12,06,10,59,2.20
2021,12,06,11,00,2.20
2021,12,06,11,01,2.20
2021,12,06,11,02,2.20
2021,12,06,11,03,2.20
2021,12,06,11,04,2.30
2021,12,06,11,05,2.30
2021,12,06,11,06,2.30
2021,12,06,11,07,2.30
2021,12,06,11,08,2.30
2021,12,06,11,09,2.30
2021,12,06,11,10,2.30
2021,12,06,11,11,2.30
2021,12,06,11,12,2.30
2021,12,06,11,13,2.30
2021,12,06,11,14,2.30
2021,12,06,11,15,2.30
2021,12,06,11,16,2.30
2021,12,06,11,17,2.30
2021,12,06,11,18,2.30
2021,12,06,11,19,2.30
2021,12,06,11,20,2.30
2021,12,06,11,21,2.30
2021,12,06,11,22,2.30
2021,12,06,11,23,2.30
2021,12,06,11,24,2.30
2021,12,06,11,25,2.30
2021,12,06,11,26,2.40
2021,12,06,11,27,2.40
2021,12,06,11,28,2.40
2021,12,06,11,29,2.40
2021,12,06,11,30,2.40
2021,12,06,11,31,2.40
2021,12,06,11,32,2.40
2021,12,06,11,33,2.40
2021,12,06,11,34,2.40
2021,12,06,11,35,2.40
2021,12,06,11,36,2.40
2021,12,06,11,37,2.40
2021,12,06,11,38,2.40
2021,12,06,11,39,2.40
2021,12,06,11,40,2.40
2021,12,06,11,41,2.40
2021,12,06,11,42,2.40
2021,12,06,11,43,2.40
2021,12,06,11,44,2.40
2021,12,06,11,45,2.40
2021,12,06,11,46,2.40
2021,12,06,11,47,2.40
2021,12,06,11,48,2.40
2021,12,06,11,49,2.40
2021,12,06,11,50,2.40
2021,12,06,11,51,2.40
2021,12,06,11,52,2.40
2021,12,06,11,53,2.40
2021,12,06,11,54,2.40
2021,12,06,11,55,2.50
2021,12,06,11,56,2.50
2021,12,06,11,57,2.50
2021,12,06,11,58,2.50
2021,12,06,11,59,2.50
2021,12,06,12,00,2.50
2021,12,06,12,01,2.50
2021,12,06,12,02,2.60
2021,12,06,12,03,2.60
2021,12,06,12,04,2.60
2021,12,06,12,05,2.60
2021,12,06,12,06,2.60
2021,12,06,12,07,2.60
2021,12,06,12,08,2.60
2021,12,06,12,09,2.60
2021,12,06,12,10,2.60
2021,12,06,12,11,2.60
2021,12,06,12,12,2.60
2021,12,06,12,13,2.60
2021,12,06,12,14,2.60
2021,12,06,12,15,2.60
2021,12,06,12,16,2.60
2021,12,06,12,17,2.70
2021,12,06,12,18,2.60
2021,12,06,12,19,2.60
2021,12,06,12,20,2.60
2021,12,06,12,21,2.60
2021,12,06,12,22,2.60
2021,12,06,12,23,2.60
2021,12,06,12,24,2.60
2021,12,06,12,25,2.70
2021,12,06,12,26,2.70
2021,12,06,12,27,2.70
2021,12,06,12,28,2.70
2021,12,06,12,29,2.70
2021,12,06,12,30,2.70
2021,12,06,12,31,2.70
2021,12,06,12,32,2.70
2021,12,06,12,33,2.70
2021,12,06,12,34,2.70
2021,12,06,12,35,2.70
2021,12,06,12,36,2.70
2021,12,06,12,37,2.80
2021,12,06,12,38,2.80
2021,12,06,12,39,2.80
2021,12,06,12,40,2.80
2021,12,06,12,41,2.80
2021,12,06,12,42,2.80
2021,12,06,12,43,2.80
2021,12,06,12,44,2.80
2021,12,06,12,45,2.80
2021,12,06,12,46,2.80
2021,12,06,12,47,2.80
2021,12,06,12,48,2.80
2021,12,06,12,49,2.80
2021,12,06,12,50,2.80
2021,12,06,12,51,2.80
2021,12,06,12,52,2.80
2021,12,06,12,53,2.90
2021,12,06,12,54,2.90
2021,12,06,12,55,2.90
2021,12,06,12,56,2.90
2021,12,06,12,57,2.90
2021,12,06,12,58,2.90
2021,12,06,12,59,2.90
2021,12,06,13,00,2.90
2021,12,06,13,01,2.90
2021,12,06,13,02,2.90
2021,12,06,13,03,2.90
2021,12,06,13,04,2.90
2021,12,06,13,05,2.90
2021,12,06,13,06,2.90
2021,12,06,13,07,2.90
2021,12,06,13,08,2.90
2021,12,06,13,09,2.90
2021,12,06,13,10,2.90
2021,12,06,13,11,2.90
2021,12,06,13,12,2.90
2021,12,06,13,13,2.90
2021,12,06,13,14,2.90
2021,12,06,13,15,2.90
2021,12,06,13,16,3.00
2021,12,06,13,17,3.00
2021,12,06,13,18,3.00
2021,12,06,13,19,3.00
2021,12,06,13,20,3.10
2021,12,06,13,21,3.10
2021,12,06,13,22,3.10
2021,12,06,13,23,3.20
2021,12,06,13,24,3.20
2021,12,06,13,25,3.20
2021,12,06,13,26,3.20
2021,12,06,13,27,3.30
2021,12,06,13,28,3.30
2021,12,06,13,29,3.30
2021,12,06,13,30,3.40
2021,12,06,13,31,3.40
2021,12,06,13,32,3.40
2021,12,06,13,33,3.50
2021,12,06,13,34,3.60
2021,12,06,13,35,3.60
2021,12,06,13,36,3.70
2021,12,06,13,37,3.70
2021,12,06,13,38,3.80
2021,12,06,13,39,3.80
2021,12,06,13,40,3.90
2021,12,06,13,41,3.90
2021,12,06,13,42,3.90
2021,12,06,13,43,4.00
2021,12,06,13,44,4.00
2021,12,06,13,45,4.00
2021,12,06,13,46,4.00
2021,12,06,13,47,4.10
2021,12,06,13,48,4.10
2021,12,06,13,49,4.10
2021,12,06,13,50,4.10
2021,12,06,13,51,4.10
2021,12,06,13,52,4.10
2021,12,06,13,53,4.10
2021,12,06,13,54,4.10
2021,12,06,13,55,4.10
2021,12,06,13,56,4.10
2021,12,06,13,57,4.10
2021,12,06,13,58,4.10
2021,12,06,13,59,4.10
2021,12,06,14,00,4.10
2021,12,06,14,01,4.10
2021,12,06,14,02,4.10
2021,12,06,14,03,4.10
2021,12,06,14,04,4.10
2021,12,06,14,05,4.10
2021,12,06,14,06,4.10
2021,12,06,14,07,4.10
2021,12,06,14,08,4.10
2021,12,06,14,09,4.10
2021,12,06,14,10,4.10
2021,12,06,14,11,4.10
2021,12,06,14,12,4.10
2021,12,06,14,13,4.10
2021,12,06,14,14,4.10
2021,12,06,14,15,4.10
2021,12,06,14,16,4.10
2021,12,06,14,17,4.10
2021,12,06,14,18,4.10
2021,12,06,14,19,4.10
2021,12,06,14,20,4.10
2021,12,06,14,21,4.10
2021,12,06,14,22,4.10
2021,12,06,14,23,4.10
2021,12,06,14,24,4.10
2021,12,06,14,25,4.10
2021,12,06,14,26,4.00
2021,12,06,14,27,4.00
2021,12,06,14,28,4.10
2021,12,06,14,29,4.10
2021,12,06,14,30,4.00
2021,12,06,14,31,4.00
2021,12,06,14,32,4.00
2021,12,06,14,33,4.00
2021,12,06,14,34,4.00
2021,12,06,14,35,4.00
2021,12,06,14,36,4.00
2021,12,06,14,37,4.00
2021,12,06,14,38,4.00
2021,12,06,14,39,4.00
2021,12,06,14,40,4.00
2021,12,06,14,41,4.00
2021,12,06,14,42,4.00
2021,12,06,14,43,3.90
2021,12,06,14,44,3.90
2021,12,06,14,45,3.90
2021,12,06,14,46,3.90
2021,12,06,14,47,3.90
2021,12,06,14,48,3.90
2021,12,06,14,49,3.90
2021,12,06,14,50,3.90
2021,12,06,14,51,3.90
2021,12,06,14,52,3.90
2021,12,06,14,53,3.90
2021,12,06,14,54,3.90
2021,12,06,14,55,3.90
2021,12,06,14,56,3.90
2021,12,06,14,57,3.90
2021,12,06,14,58,3.90
2021,12,06,14,59,3.90
2021,12,06,15,00,3.90
2021,12,06,15,01,3.90
2021,12,06,15,02,3.90
2021,12,06,15,03,3.90
2021,12,06,15,04,3.90
2021,12,06,15,05,3.90
2021,12,06,15,06,3.90
2021,12,06,15,07,3.90
2021,12,06,15,08,3.90
2021,12,06,15,09,3.90
2021,12,06,15,10,3.90
2021,12,06,15,11,3.90
2021,12,06,15,12,3.90
2021,12,06,15,13,3.80
2021,12,06,15,14,3.90
2021,12,06,15,15,3.90
2021,12,06,15,16,3.90
2021,12,06,15,17,3.90
2021,12,06,15,18,3.90
2021,12,06,15,19,3.90
2021,12,06,15,20,3.90
2021,12,06,15,21,3.90
2021,12,06,15,22,3.90
2021,12,06,15,23,3.90
2021,12,06,15,24,3.90
2021,12,06,15,25,3.90
2021,12,06,15,26,3.90
2021,12,06,15,27,3.90
2021,12,06,15,28,3.90
2021,12,06,15,29,3.90
2021,12,06,15,30,3.90
2021,12,06,15,31,3.90
2021,12,06,15,32,3.90
2021,12,06,15,33,3.90
2021,12,06,15,34,3.90
2021,12,06,15,35,3.90
2021,12,06,15,36,3.90
2021,12,06,15,37,3.90
2021,12,06,15,38,3.90
2021,12,06,15,39,3.90
2021,12,06,15,40,3.90
2021,12,06,15,41,3.90
2021,12,06,15,42,3.80
2021,12,06,15,43,3.80
2021,12,06,15,44,3.80
2021,12,06,15,45,3.80
2021,12,06,15,46,3.80
2021,12,06,15,47,3.80
2021,12,06,15,48,3.80
2021,12,06,15,49,3.80
2021,12,06,15,50,3.80
2021,12,06,15,51,3.80
2021,12,06,15,52,3.80
2021,12,06,15,53,3.80
2021,12,06,15,54,3.80
2021,12,06,15,55,3.80
2021,12,06,15,56,3.80
2021,12,06,15,57,3.80
2021,12,06,15,58,3.80
2021,12,06,15,59,3.80
2021,12,06,16,00,3.80
2021,12,06,16,01,3.80
2021,12,06,16,02,3.80
2021,12,06,16,03,3.80
2021,12,06,16,04,3.80
2021,12,06,16,05,3.80
2021,12,06,16,06,3.80
2021,12,06,16,07,3.80
2021,12,06,16,08,3.80
2021,12,06,16,09,3.80
2021,12,06,16,10,3.80
2021,12,06,16,11,3.80
2021,12,06,16,12,3.80
2021,12,06,16,13,3.80
2021,12,06,16,14,3.80
2021,12,06,16,15,3.80
2021,12,06,16,16,3.80
2021,12,06,16,17,3.80
2021,12,06,16,18,3.80
2021,12,06,16,19,3.80
2021,12,06,16,20,3.80
2021,12,06,16,21,3.80
2021,12,06,16,22,3.80
2021,12,06,16,23,3.80
2021,12,06,16,24,3.80
2021,12,06,16,25,3.80
2021,12,06,16,26,3.80
2021,12,06,16,27,3.80
2021,12,06,16,28,3.80
2021,12,06,16,29,3.80
2021,12,06,16,30,3.80
2021,12,06,16,31,3.80
2021,12,06,16,32,3.80
2021,12,06,16,33,3.80
2021,12,06,16,34,3.80
2021,12,06,16,35,3.80
2021,12,06,16,36,3.80
2021,12,06,16,37,3.80
2021,12,06,16,38,3.80
2021,12,06,16,39,3.80
2021,12,06,16,40,3.80
2021,12,06,16,41,3.80
2021,12,06,16,42,3.80
2021,12,06,16,43,3.80
2021,12,06,16,44,3.80
2021,12,06,16,45,3.80
2021,12,06,16,46,3.80
2021,12,06,16,47,3.80
2021,12,06,16,48,3.80
2021,12,06,16,49,3.80
2021,12,06,16,50,3.80
2021,12,06,16,51,3.70
2021,12,06,16,52,3.70
2021,12,06,16,53,3.70
2021,12,06,16,54,3.70
2021,12,06,16,55,3.60
2021,12,06,16,56,3.60
2021,12,06,16,57,3.60
2021,12,06,16,58,3.60
2021,12,06,16,59,3.50
2021,12,06,17,00,3.50
2021,12,06,17,01,3.50
2021,12,06,17,02,3.50
2021,12,06,17,03,3.40
2021,12,06,17,04,3.40
2021,12,06,17,05,3.40
2021,12,06,17,06,3.40
2021,12,06,17,07,3.40
2021,12,06,17,08,3.40
2021,12,06,17,09,3.40
2021,12,06,17,10,3.40
2021,12,06,17,11,3.40
2021,12,06,17,12,3.40
2021,12,06,17,13,3.40
2021,12,06,17,14,3.40
2021,12,06,17,15,3.40
2021,12,06,17,16,3.40
2021,12,06,17,17,3.40
2021,12,06,17,18,3.40
2021,12,06,17,19,3.40
2021,12,06,17,20,3.40
2021,12,06,17,21,3.40
2021,12,06,17,22,3.40
2021,12,06,17,23,3.40
2021,12,06,17,24,3.40
2021,12,06,17,25,3.40
2021,12,06,17,26,3.40
2021,12,06,17,27,3.40
2021,12,06,17,28,3.40
2021,12,06,17,29,3.40
2021,12,06,17,30,3.40
2021,12,06,17,31,3.40
2021,12,06,17,32,3.40
2021,12,06,17,33,3.40
2021,12,06,17,34,3.40
2021,12,06,17,35,3.40
2021,12,06,17,36,3.50
2021,12,06,17,37,3.50
2021,12,06,17,38,3.40
2021,12,06,17,39,3.50
2021,12,06,17,40,3.50
2021,12,06,17,41,3.40
2021,12,06,17,42,3.50
2021,12,06,17,43,3.40
2021,12,06,17,44,3.40
2021,12,06,17,45,3.40
2021,12,06,17,46,3.40
2021,12,06,17,47,3.40
2021,12,06,17,48,3.40
2021,12,06,17,49,3.40
2021,12,06,17,50,3.40
2021,12,06,17,51,3.40
2021,12,06,17,52,3.40
2021,12,06,17,53,3.40
2021,12,06,17,54,3.30
2021,12,06,17,55,3.30
2021,12,06,17,56,3.30
2021,12,06,17,57,3.30
2021,12,06,17,58,3.30
2021,12,06,17,59,3.30
2021,12,06,18,00,3.30
2021,12,06,18,01,3.30
2021,12,06,18,02,3.30
2021,12,06,18,03,3.30
2021,12,06,18,04,3.30
2021,12,06,18,05,3.30
2021,12,06,18,06,3.30
2021,12,06,18,07,3.30
2021,12,06,18,08,3.30
2021,12,06,18,09,3.30
2021,12,06,18,10,3.30
2021,12,06,18,11,3.30
2021,12,06,18,12,3.30
2021,12,06,18,13,3.30
2021,12,06,18,14,3.30
2021,12,06,18,15,3.30
2021,12,06,18,16,3.30
2021,12,06,18,17,3.30
2021,12,06,18,18,3.30
2021,12,06,18,19,3.30
2021,12,06,18,20,3.30
2021,12,06,18,21,3.30
2021,12,06,18,22,3.30
2021,12,06,18,23,3.30
2021,12,06,18,24,3.30
2021,12,06,18,25,3.30
2021,12,06,18,26,3.30
2021,12,06,18,27,3.30
2021,12,06,18,28,3.30
2021,12,06,18,29,3.30
2021,12,06,18,30,3.30
2021,12,06,18,31,3.30
2021,12,06,18,32,3.20
2021,12,06,18,33,3.20
2021,12,06,18,34,3.20
2021,12,06,18,35,3.20
2021,12,06,18,36,3.20
2021,12,06,18,37,3.20
2021,12,06,18,38,3.20
2021,12,06,18,39,3.20
2021,12,06,18,40,3.20
2021,12,06,18,41,3.20
2021,12,06,18,42,3.20
2021,12,06,18,43,3.20
2021,12,06,18,44,3.20
2021,12,06,18,45,3.20
2021,12,06,18,46,3.20
2021,12,06,18,47,3.20
2021,12,06,18,48,3.20
2021,12,06,18,49,3.20
2021,12,06,18,50,3.20
2021,12,06,18,51,3.20
2021,12,06,18,52,3.20
2021,12,06,18,53,3.20
2021,12,06,18,54,3.20
2021,12,06,18,55,3.20
2021,12,06,18,56,3.20
2021,12,06,18,57,3.20
2021,12,06,18,58,3.20
2021,12,06,18,59,3.20
2021,12,06,19,00,3.20
2021,12,06,19,01,3.20
2021,12,06,19,02,3.20
2021,12,06,19,03,3.20
2021,12,06,19,04,3.20
2021,12,06,19,05,3.20
2021,12,06,19,06,3.20
2021,12,06,19,07,3.20
2021,12,06,19,08,3.20
2021,12,06,19,09,3.20
2021,12,06,19,10,3.20
2021,12,06,19,11,3.20
2021,12,06,19,12,3.20
2021,12,06,19,13,3.20
2021,12,06,19,14,3.20
2021,12,06,19,15,3.20
2021,12,06,19,16,3.20
2021,12,06,19,17,3.20
2021,12,06,19,18,3.20
2021,12,06,19,19,3.20
2021,12,06,19,20,3.20
2021,12,06,19,21,3.20
2021,12,06,19,22,3.20
2021,12,06,19,23,3.20
2021,12,06,19,24,3.20
2021,12,06,19,25,3.20
2021,12,06,19,26,3.20
2021,12,06,19,27,3.20
2021,12,06,19,28,3.20
2021,12,06,19,29,3.20
2021,12,06,19,30,3.30
2021,12,06,19,31,3.30
2021,12,06,19,32,3.30
2021,12,06,19,33,3.30
2021,12,06,19,34,3.30
2021,12,06,19,35,3.30
2021,12,06,19,36,3.30
2021,12,06,19,37,3.30
2021,12,06,19,38,3.30
2021,12,06,19,39,3.30
2021,12,06,19,40,3.30
2021,12,06,19,41,3.30
2021,12,06,19,42,3.30
2021,12,06,19,43,3.30
2021,12,06,19,44,3.30
2021,12,06,19,45,3.30
2021,12,06,19,46,3.30
2021,12,06,19,47,3.30
2021,12,06,19,48,3.30
2021,12,06,19,49,3.30
2021,12,06,19,50,3.30
2021,12,06,19,51,3.30
2021,12,06,19,52,3.30
2021,12,06,19,53,3.30
2021,12,06,19,54,3.30
2021,12,06,19,55,3.30
2021,12,06,19,56,3.30
2021,12,06,19,57,3.30
2021,12,06,19,58,3.30
2021,12,06,19,59,3.30
2021,12,06,20,00,3.30
2021,12,06,20,01,3.30
2021,12,06,20,02,3.30
2021,12,06,20,03,3.30
2021,12,06,20,04,3.30
2021,12,06,20,05,3.30
2021,12,06,20,06,3.30
2021,12,06,20,07,3.30
2021,12,06,20,08,3.30
2021,12,06,20,09,3.30
2021,12,06,20,10,3.30
2021,12,06,20,11,3.30
2021,12,06,20,12,3.30
2021,12,06,20,13,3.30
2021,12,06,20,14,3.30
2021,12,06,20,15,3.30
2021,12,06,20,16,3.30
2021,12,06,20,17,3.30
2021,12,06,20,18,3.30
2021,12,06,20,19,3.40
2021,12,06,20,20,3.30
2021,12,06,20,21,3.30
2021,12,06,20,22,3.30
2021,12,06,20,23,3.30
2021,12,06,20,24,3.30
2021,12,06,20,25,3.30
2021,12,06,20,26,3.30
2021,12,06,20,27,3.30
2021,12,06,20,28,3.30
2021,12,06,20,29,3.30
2021,12,06,20,30,3.30
2021,12,06,20,31,3.40
2021,12,06,20,32,3.40
2021,12,06,20,33,3.40
2021,12,06,20,34,3.40
2021,12,06,20,35,3.40
2021,12,06,20,36,3.40
2021,12,06,20,37,3.40
2021,12,06,20,38,3.40
2021,12,06,20,39,3.40
2021,12,06,20,40,3.40
2021,12,06,20,41,3.40
2021,12,06,20,42,3.40
2021,12,06,20,43,3.40
2021,12,06,20,44,3.40
2021,12,06,20,45,3.40
2021,12,06,20,46,3.40
2021,12,06,20,47,3.40
2021,12,06,20,48,3.40
2021,12,06,20,49,3.40
2021,12,06,20,50,3.40
2021,12,06,20,51,3.40
2021,12,06,20,52,3.40
2021,12,06,20,53,3.40
2021,12,06,20,54,3.40
2021,12,06,20,55,3.40
2021,12,06,20,56,3.40
2021,12,06,20,57,3.40
2021,12,06,20,58,3.40
2021,12,06,20,59,3.40
2021,12,06,21,00,3.40
2021,12,06,21,01,3.40
2021,12,06,21,02,3.40
2021,12,06,21,03,3.40
2021,12,06,21,04,3.40
2021,12,06,21,05,3.40
2021,12,06,21,06,3.40
2021,12,06,21,07,3.40
2021,12,06,21,08,3.40
2021,12,06,21,09,3.40
2021,12,06,21,10,3.40
2021,12,06,21,11,3.40
2021,12,06,21,12,3.40
2021,12,06,21,13,3.40
2021,12,06,21,14,3.40
2021,12,06,21,15,3.40
2021,12,06,21,16,3.40
2021,12,06,21,17,3.40
2021,12,06,21,18,3.40
2021,12,06,21,19,3.40
2021,12,06,21,20,3.40
2021,12,06,21,21,3.40
2021,12,06,21,22,3.40
2021,12,06,21,23,3.40
2021,12,06,21,24,3.40
2021,12,06,21,25,3.40
2021,12,06,21,26,3.40
2021,12,06,21,27,3.40
2021,12,06,21,28,3.40
2021,12,06,21,29,3.40
2021,12,06,21,30,3.40
2021,12,06,21,31,3.40
2021,12,06,21,32,3.40
2021,12,06,21,33,3.40
2021,12,06,21,34,3.40
2021,12,06,21,35,3.40
2021,12,06,21,36,3.40
2021,12,06,21,37,3.40
2021,12,06,21,38,3.40
2021,12,06,21,39,3.40
2021,12,06,21,40,3.40
2021,12,06,21,41,3.40
2021,12,06,21,42,3.40
2021,12,06,21,43,3.40
2021,12,06,21,44,3.40
2021,12,06,21,45,3.40
2021,12,06,21,46,3.40
2021,12,06,21,47,3.40
2021,12,06,21,48,3.40
2021,12,06,21,49,3.40
2021,12,06,21,50,3.40
2021,12,06,21,51,3.40
2021,12,06,21,52,3.40
2021,12,06,21,53,3.40
2021,12,06,21,54,3.40
2021,12,06,21,55,3.40
2021,12,06,21,56,3.40
2021,12,06,21,57,3.40
2021,12,06,21,58,3.40
2021,12,06,21,59,3.40
2021,12,06,22,00,3.40
2021,12,06,22,01,3.40
2021,12,06,22,02,3.40
2021,12,06,22,03,3.40
2021,12,06,22,04,3.40
2021,12,06,22,05,3.40
2021,12,06,22,06,3.40
2021,12,06,22,07,3.40
2021,12,06,22,08,3.40
2021,12,06,22,09,3.40
2021,12,06,22,10,3.40
2021,12,06,22,11,3.40
2021,12,06,22,12,3.40
2021,12,06,22,13,3.40
2021,12,06,22,14,3.40
2021,12,06,22,15,3.40
2021,12,06,22,16,3.40
2021,12,06,22,17,3.40
2021,12,06,22,18,3.40
2021,12,06,22,19,3.40
2021,12,06,22,20,3.40
2021,12,06,22,21,3.40
2021,12,06,22,22,3.40
2021,12,06,22,23,3.40
2021,12,06,22,24,3.40
2021,12,06,22,25,3.40
2021,12,06,22,26,3.40
2021,12,06,22,27,3.40
2021,12,06,22,28,3.40
2021,12,06,22,29,3.40
2021,12,06,22,30,3.40
2021,12,06,22,31,3.40
2021,12,06,22,32,3.40
2021,12,06,22,33,3.40
2021,12,06,22,34,3.40
2021,12,06,22,35,3.40
2021,12,06,22,36,3.40
2021,12,06,22,37,3.40
2021,12,06,22,38,3.40
2021,12,06,22,39,3.40
2021,12,06,22,40,3.40
2021,12,06,22,41,3.40
2021,12,06,22,42,3.40
2021,12,06,22,43,3.40
2021,12,06,22,44,3.40
2021,12,06,22,45,3.40
2021,12,06,22,46,3.40
2021,12,06,22,47,3.40
2021,12,06,22,48,3.40
2021,12,06,22,49,3.40
2021,12,06,22,50,3.40
2021,12,06,22,51,3.40
2021,12,06,22,52,3.40
2021,12,06,22,53,3.40
2021,12,06,22,54,3.40
2021,12,06,22,55,3.40
2021,12,06,22,56,3.40
2021,12,06,22,57,3.40
2021,12,06,22,58,3.40
2021,12,06,22,59,3.40
2021,12,06,23,00,3.40
2021,12,06,23,01,3.40
2021,12,06,23,02,3.40
2021,12,06,23,03,3.40
2021,12,06,23,04,3.40
2021,12,06,23,05,3.40
2021,12,06,23,06,3.40
2021,12,06,23,07,3.40
2021,12,06,23,08,3.40
2021,12,06,23,09,3.40
2021,12,06,23,10,3.40
2021,12,06,23,11,3.40
2021,12,06,23,12,3.40
2021,12,06,23,13,3.40
2021,12,06,23,14,3.40
2021,12,06,23,15,3.40
2021,12,06,23,16,3.40
2021,12,06,23,17,3.40
2021,12,06,23,18,3.40
2021,12,06,23,19,3.40
2021,12,06,23,20,3.40
2021,12,06,23,21,3.40
2021,12,06,23,22,3.40
2021,12,06,23,23,3.40
2021,12,06,23,24,3.40
2021,12,06,23,25,3.40
2021,12,06,23,26,3.40
2021,12,06,23,27,3.40
2021,12,06,23,28,3.40
2021,12,06,23,29,3.40
2021,12,06,23,30,3.40
2021,12,06,23,31,3.40
2021,12,06,23,32,3.40
2021,12,06,23,33,3.40
2021,12,06,23,34,3.40
2021,12,06,23,35,3.40
2021,12,06,23,36,3.40
2021,12,06,23,37,3.40
2021,12,06,23,38,3.40
2021,12,06,23,39,3.40
2021,12,06,23,40,3.40
2021,12,06,23,41,3.40
2021,12,06,23,42,3.40
2021,12,06,23,43,3.40
2021,12,06,23,44,3.40
2021,12,06,23,45,3.40
2021,12,06,23,46,3.40
2021,12,06,23,47,3.40
2021,12,06,23,48,3.50
2021,12,06,23,49,3.50
2021,12,06,23,50,3.50
2021,12,06,23,51,3.50
2021,12,06,23,52,3.50
2021,12,06,23,53,3.50
2021,12,06,23,54,3.50
2021,12,06,23,55,3.50
2021,12,06,23,56,3.50
2021,12,06,23,57,3.50
2021,12,06,23,58,3.50
2021,12,06,23,59,3.50
